カタログに戻る

STARLINK-37036

運用中通信VLEO
NORAD 68077·PAYLOAD·🇺🇸 United States

打ち上げ Mar 4, 2026 から Vandenberg Space Force Base

Loading…

次のパス (今後24時間)

TLE

最新Source: CelesTrak SupGP

元期: Sep 15, 2026, 03:57 UTC

1 68077C 26042J   26258.16506944  .00068877  00000+0  20342-2 0  2586
2 68077  53.1592  12.8451 0001138  91.0478 354.0040 15.34368761    19

AllMySatでSTARLINK-37036をリアルタイム追跡

Download on the App Store